Voltar ao catálogo

STARLINK-31570

AtivoComunicaçõesVLEO
NORAD 59324·PAYLOAD·🇺🇸 United States

Lançado Mar 25, 2024 de Cape Canaveral Space Force Station

Loading…

Próximas Passagens (próximas 24 horas)

TLE

AtualizadoSource: CelesTrak SupGP

Época: Sep 14, 2026, 21:13 UTC

1 59324C 24057E   26257.88451389  .00010923  00000+0  39574-3 0  2571
2 59324  43.0004 198.9947 0001241 262.7493 305.2229 15.27563683    14

Acompanhe STARLINK-31570 em tempo real com AllMySat

Download on the App Store